sat.trackr.live / text

‹ back to catalog

STARLINK-34255

NORAD 65417 · 2025-192P

PAYLOAD ACTIVE UNKNOWN

§ Identity

Operator
Country
US
Launch date
2025-08-31
Launch site
AFETR
Launch vehicle
Mass (kg)
RCS (m²)

Purposes: comms

External: N2YO · Heavens-Above · Gunter

§ Orbital elements

Epoch: 2026-05-24T23:48:35.318016Z

Period
94.11 min
Inclination
53.1577°
Eccentricity
0.0001391
Mean motion
15.30204180 rev/d
Perigee alt
474.2 km
Apogee alt
476.2 km
Semi-major
6,853.3 km
B*
8.6415e-4
RAAN
238.1258°
Arg perigee
84.2674°
Mean anomaly
275.8486°
Rev number
4,106

§ Raw data

STARLINK-342551 65417U 25192P   26144.99207544  .00025325  00000+0  86415-3 0  99922 65417  53.1577 238.1258 0001391  84.2674 275.8486 15.30204180 41062

JSON: /api/v1/satellites/65417 · /tle

For live sub-satellite position, see the globe view (requires WebGL).

§ Visibility from observer

Set your observer location to see the next 7 days of passes ≥ 10°. The values pass through the URL so the page stays shareable.

No JS? Fill the form by hand. The geolocation button needs JavaScript.